Hourly Data Report for September 10, 2017

All times are specified in Local Standard Time (LST). Add 1 hour to adjust for Daylight Saving Time where and when it is observed.

CLYDE RIVER A
NUNAVUT

70°29'09.000" N
68°31'01.000" W
26.50 m
2400804
71090
YCY

Download Data

Hourly Data (September 2017)
Hourly Data Report for September 10, 2017
Temp Definition
°C
Dew Point Temp Definition
°C
Rel Hum Definition
%
Wind Dir Definition
10's deg

Wind Spd Definition
km/h
Visibility Definition
km
Stn Press Definition
kPa
Hmdx Definition


Wind Chill Definition


Weather Definition


TIME
00:00 Legend Double Dagger -0.5 -4.1 77 25 5 16.1 98.12   -2 LegendNANA
01:00 Legend Double Dagger 0.3 -3.6 75 33 15 16.1 98.28     LegendNANA
02:00 Legend Double Dagger -0.9 -2.5 89 29 15 16.1 98.39   -6 LegendNANA
03:00 Legend Double Dagger 1.0 -0.9 87 32 26 16.1 98.56     LegendNANA
04:00 Legend Double Dagger 1.2 -1.2 84 32 32 16.1 98.66     LegendNANA
05:00 Legend Double Dagger 0.8 -1.1 87 32 26 16.1 98.78     Rain
06:00 Legend Double Dagger 0.8 -0.5 91 31 24 4.0 98.91     Rain,Fog
07:00 Legend Double Dagger 1.4 -1.5 81 29 11 16.1 98.98     LegendNANA
08:00 Legend Double Dagger 1.6 -0.9 84 23 8 16.1 99.00     LegendNANA
09:00 Legend Double Dagger 3.1 -1.3 73 28 8 16.1 99.06     LegendNANA
10:00 Legend Double Dagger 4.0 -1.2 69 20 9 16.1 99.11     LegendNANA
11:00 Legend Double Dagger 2.2 -2.0 74 35 28 16.1 99.19     LegendNANA
12:00 Legend Double Dagger 3.3 -2.8 64 35 28 16.1 99.25     LegendNANA
13:00 Legend Double Dagger 2.5 -3.4 65 35 21 16.1 99.32     LegendNANA
14:00 Legend Double Dagger 2.2 -3.3 67 1 18 16.1 99.40     LegendNANA
15:00 Legend Double Dagger 1.8 -2.7 72 1 17 16.1 99.48     LegendNANA
16:00 Legend Double Dagger 1.6 -2.4 75 36 11 16.1 99.59     LegendNANA
17:00 Legend Double Dagger 1.5 -2.1 77 2 9 16.1 99.63     LegendNANA
18:00 Legend Double Dagger 1.0 -2.2 79 5 4 16.1 99.69     LegendNANA
19:00 Legend Double Dagger -0.4 -2.5 86 15 8 16.1 99.72   -3 LegendNANA
20:00 Legend Double Dagger -0.9 -2.6 88 16 5 16.1 99.73   -3 LegendNANA
21:00 Legend Double Dagger -0.3 -2.8 83 24 4 16.1 99.72   -2 LegendNANA
22:00 Legend Double Dagger -1.6 -3.0 90 23 5 16.1 99.71   -3 LegendNANA
23:00 Legend Double Dagger -0.2 -3.5 78 24 8 16.1 99.72   -3 LegendNANA

Notes on Data Quality.

Legend

  • E = Estimated
  • M = Missing
  • NA = Not Available
  • ‡ = Partner data that is not subject to review by the National Climate Archives
Date modified: